[[{"header":{"parameterUnit":"m.s-1","parameterCategory":1,"la1":30.2991,"la2":30.254,"lo1":-89.0895,"lo2":-89.0444,"dy":0.0017,"dx":0.0017,"nx":28,"ny":28,"refTime":"2024-05-05T21:00:00:Z","depth":0,"parameterNumber":2,"parameterNumberName":"U-component_of_WINDS"},"data":[0,0,0,0,0,0,0,0,0,0,0,0,0,0,0,0,0,0,0,0,0,0,0,0,0,0,0,0,0,0,0,0,0,0,0,0,0,0,0,0,0,0,0,0,0,0,0,0,0,0,0,0,0,0,0,0,0,0,-2.5711,-2.5712,0,-2.5777,-2.5777,-2.5778,-2.5773,-2.5772,-2.5771,-2.577,-2.5836,-2.5839,-2.5841,0,0,0,0,0,0,0,0,0,0,0,0,0,-2.5581,-2.5583,-2.5711,-2.5712,-2.5713,-2.5776,-2.5777,-2.5778,-2.5773,-2.5771,-2.577,-2.5769,-2.5835,-2.5838,-2.5841,0,0,0,0,0,0,0,0,0,0,0,0,0,-2.5641,-2.5584,-2.5711,-2.5717,-2.5719,-2.5776,-2.5777,-2.5778,-2.5773,-2.5771,-2.577,-2.5769,-2.5834,-2.5838,-2.5842,-2.5897,0,0,-2.5854,-2.5856,0,0,0,0,0,0,0,0,-2.5637,-2.5646,-2.5716,-2.5717,-2.5719,-2.5765,-2.5756,-2.5818,-2.5773,-2.5752,-2.577,-2.5768,-2.5813,-2.5819,-2.5835,-2.59,-2.5903,-2.5855,-2.5857,-2.5859,-2.586,0,0,0,0,0,0,0,-2.5633,-2.5643,-2.5737,-2.5717,-2.5719,-2.5717,-2.5724,-2.5767,-2.579,-2.5754,-2.5754,-2.5762,-2.5814,-2.5831,-2.5836,-2.5904,-2.5854,-2.5858,-2.5861,-2.5862,-2.6017,-2.6019,0,0,0,0,0,0,-2.5628,-2.5639,-2.5735,-2.5739,-2.5674,-2.5721,-2.5728,-2.5751,-2.579,-2.5794,-2.5763,-2.5761,-2.5825,-2.5831,-2.5838,-2.5905,-2.5859,-2.5862,-2.5865,-2.6015,-2.6017,-2.6019,0,0,0,0,0,0,-2.5625,-2.5636,-2.5732,-2.5689,-2.5701,-2.5725,-2.575,-2.5754,-2.577,-2.5797,-2.5801,-2.5776,-2.5824,-2.5833,-2.5882,-2.5907,-2.5864,-2.5868,-2.6013,-2.6016,-2.6018,-2.6038,0,0,0,0,0,0,-2.5621,-2.5635,-2.5656,-2.569,-2.5703,-2.5775,-2.5752,-2.5756,-2.5777,-2.5776,-2.581,-2.5814,-2.5823,-2.5876,-2.5886,-2.5912,-2.5871,-2.6011,-2.6014,-2.6017,-2.6035,-2.6041,-2.6046,0,0,0,0,0,-2.5616,-2.5659,-2.5657,-2.5669,-2.573,-2.5776,-2.5784,-2.5794,-2.5779,-2.5801,-2.5818,-2.5813,-2.5903,-2.5881,-2.5893,-2.592,-2.601,-2.6013,-2.6017,-2.6033,-2.604,-2.6045,0,0,0,0,0,0,-2.5627,-2.5663,-2.5662,-2.5716,-2.5743,-2.5775,-2.5802,-2.5801,-2.5833,-2.583,-2.5841,-2.5848,-2.5898,-2.5914,-2.5889,-2.5975,-2.5954,-2.596,-2.5962,-2.5969,-2.5974,-2.5969,-2.5874,0,0,0,0,0,-2.5636,-2.5671,-2.57,-2.5746,-2.5759,-2.5779,-2.5799,-2.5805,-2.5833,-2.5844,-2.5865,-2.5892,-2.5926,-2.5949,-2.5982,-2.6038,-2.6045,-2.6062,-2.6067,-2.6071,-2.6076,-2.6107,-2.6115,-2.6032,-2.6032,-2.6032,0,0,-2.5655,-2.5679,-2.57,-2.5749,-2.577,-2.5805,-2.5788,-2.5826,-2.5853,-2.585,-2.5897,-2.5914,-2.5945,-2.5998,-2.6022,-2.6013,-2.6101,-2.6076,-2.6079,-2.6082,-2.6111,-2.6119,-2.6126,-2.6034,-2.6034,-2.6033,0,0,-2.5706,-2.5728,-2.5768,-2.579,-2.5823,-2.5836,-2.5845,-2.5878,-2.5889,-2.5937,-2.5936,-2.5967,-2.6026,-2.6049,-2.6068,-2.6129,-2.6125,-2.6139,-2.6166,-2.6196,-2.6202,-2.6208,-2.6229,-2.6237,-2.6144,-2.6144,-2.6144,0,-2.5725,-2.5778,-2.5789,-2.5827,-2.5849,-2.5848,-2.5889,-2.591,-2.5952,-2.5966,-2.5956,-2.603,-2.6051,-2.6109,-2.6124,-2.614,-2.6151,-2.6135,-2.6201,-2.6207,-2.6212,-2.6232,-2.624,-2.6146,-2.6146,-2.6146,-2.6145,0,-2.5799,-2.5836,-2.5864,-2.5905,-2.593,-2.5969,-2.5986,-2.601,-2.6013,-2.6027,-2.6077,-2.6102,-2.6141,-2.6155,-2.6159,-2.6214,-2.6207,-2.6198,-2.6178,-2.6221,-2.624,-2.6248,-2.6148,-2.6147,-2.6147,-2.6147,0,0,-2.5858,-2.5905,-2.5915,-2.5933,-2.597,-2.5999,-2.6039,-2.6076,-2.6096,-2.6126,-2.6159,-2.6209,-2.6202,-2.6224,-2.623,-2.6256,-2.6302,-2.6245,-2.6245,-2.6254,-2.6364,-2.6369,-2.6378,-2.6301,-2.6302,-2.6304,-2.6361,0,-2.5912,-2.5982,-2.5993,-2.6055,-2.6089,-2.609,-2.6124,-2.615,-2.6165,-2.6196,-2.6211,-2.6247,-2.6235,-2.6248,-2.6274,-2.6291,-2.6324,-2.6287,-2.6331,-2.6332,-2.6322,-2.6388,-2.6394,-2.6446,-2.6368,-2.637,-2.6371,0,-2.5985,-2.6016,-2.6081,-2.6113,-2.6128,-2.6159,-2.6194,-2.6224,-2.6254,-2.6263,-2.6288,-2.6291,-2.6332,-2.6311,-2.6367,-2.6342,-2.6361,-2.6372,-2.6374,-2.6378,-2.6353,-2.6392,-2.6463,-2.6471,-2.6383,-2.6382,-2.6381,0,-2.602,-2.6079,-2.6125,-2.6141,-2.618,-2.6202,-2.6219,-2.6248,-2.627,-2.6301,-2.6315,-2.6351,-2.637,-2.6398,-2.6411,-2.6394,-2.6466,-2.6446,-2.6474,-2.6474,-2.6488,-2.6487,-2.6562,-2.6502,-2.6502,-2.6502,-2.6502,0,-2.608,-2.6119,-2.6142,-2.617,-2.6214,-2.6227,-2.627,-2.6287,-2.6313,-2.6344,-2.6347,-2.6377,-2.6393,-2.6425,-2.6436,-2.648,-2.6489,-2.6497,-2.6499,-2.6496,-2.6495,-2.6508,-2.6504,-2.6504,-2.6503,-2.6503,-2.6503,0,-2.6126,-2.6143,-2.6194,-2.6227,-2.6236,-2.6267,-2.6295,-2.6323,-2.6337,-2.6377,-2.6387,-2.641,-2.6448,-2.6464,-2.651,-2.6518,-2.6568,-2.6568,-2.6558,-2.6559,-2.6585,-2.6582,-2.667,-2.6682,-2.6615,-2.6616,-2.6617,0,-2.6162,-2.6193,-2.6229,-2.625,-2.6268,-2.6303,-2.6325,-2.6339,-2.6363,-2.6399,-2.6422,-2.646,-2.6491,-2.6552,-2.6572,-2.6608,-2.6608,-2.6637,-2.6613,-2.6609,-2.6607,-2.6605,-2.6608,-2.664,-2.6641,-2.6642,-2.6642,0,-2.6224,-2.6231,-2.6264,-2.6299,-2.6326,-2.6355,-2.6383,-2.6401,-2.6419,-2.6445,-2.6484,-2.6508,-2.6556,-2.6593,-2.663,-2.6648,-2.6648,-2.6649,-2.6658,-2.6654,-2.6647,-2.665,-2.6569,-2.6647,-2.6646,-2.6646,-2.6646,-2.6646,-2.6266,-2.6293,-2.6323,-2.6359,-2.6382,-2.6408,-2.6435,-2.6453,-2.6486,-2.6526,-2.6532,-2.6573,-2.6603,-2.6653,-2.6672,-2.6704,-2.6697,-2.6709,-2.6712,-2.6714,-2.6716,-2.6643,-2.6711,-2.6711,-2.6711,-2.6711,-2.6711,0,-2.6328,-2.6347,-2.638,-2.6419,-2.6448,-2.6446,-2.6477,-2.6501,-2.6537,-2.6565,-2.6595,-2.664,-2.6676,-2.67,-2.6737,-2.6758,-2.6759,-2.6767,-2.6765,-2.6769,-2.672,-2.6709,-2.6766,-2.6766,-2.6766,-2.6766,-2.6766,-2.6766,-2.6363,-2.6408,-2.6419,-2.6475,-2.6494,-2.6535,-2.6553,-2.6577,-2.6599,-2.6648,-2.6679,-2.6694,-2.672,-2.6759,-2.6792,-2.6798,-2.6811,-2.682,-2.6825,-2.6779,-2.6773,-2.6767,-2.6757,-2.6823,-2.6823,-2.6872,-2.6872,-2.6872]},{"header":{"parameterUnit":"m.s-1","parameterCategory":1,"la1":30.2991,"la2":30.254,"lo1":-89.0895,"lo2":-89.0444,"dy":0.0017,"dx":0.0017,"nx":28,"ny":28,"refTime":"2024-05-05T21:00:00:Z","depth":0,"parameterNumber":3,"parameterNumberName":"V-component_of_WINDS"},"data":[0,0,0,0,0,0,0,0,0,0,0,0,0,0,0,0,0,0,0,0,0,0,0,0,0,0,0,0,0,0,0,0,0,0,0,0,0,0,0,0,0,0,0,0,0,0,0,0,0,0,0,0,0,0,0,0,0,0,5.5362,5.5363,0,5.5434,5.5435,5.5436,5.5377,5.5375,5.5372,5.537,5.5438,5.5442,5.5446,0,0,0,0,0,0,0,0,0,0,0,0,0,5.5167,5.5171,5.5362,5.5363,5.5364,5.5434,5.5435,5.5436,5.5378,5.5375,5.5372,5.5369,5.5437,5.5442,5.5446,0,0,0,0,0,0,0,0,0,0,0,0,0,5.5247,5.5172,5.5362,5.5343,5.5342,5.5434,5.5435,5.5437,5.5378,5.5375,5.5371,5.5367,5.5435,5.5441,5.5447,5.5559,0,0,5.5466,5.5469,0,0,0,0,0,0,0,0,5.5242,5.5254,5.5345,5.5345,5.5344,5.5393,5.5391,5.5478,5.5379,5.5364,5.537,5.5366,5.5426,5.5432,5.5454,5.5563,5.5565,5.5467,5.547,5.5473,5.5475,0,0,0,0,0,0,0,5.5237,5.525,5.539,5.5346,5.5346,5.5329,5.5337,5.5408,5.5415,5.5365,5.5361,5.5371,5.5425,5.5448,5.5455,5.5566,5.5466,5.5472,5.5476,5.5478,5.577,5.5774,0,0,0,0,0,0,5.5234,5.5246,5.5388,5.5393,5.5283,5.5336,5.5344,5.5381,5.5414,5.5415,5.5374,5.5368,5.5439,5.5448,5.5457,5.5591,5.5473,5.5479,5.5482,5.5766,5.5771,5.5776,0,0,0,0,0,0,5.523,5.5247,5.5385,5.5319,5.5335,5.5343,5.5385,5.5384,5.5408,5.5421,5.5421,5.5397,5.5437,5.5449,5.5535,5.5592,5.5481,5.5487,5.5762,5.5768,5.5773,5.5859,0,0,0,0,0,0,5.5225,5.5246,5.529,5.532,5.5339,5.5464,5.5389,5.5388,5.5419,5.5412,5.5442,5.5444,5.5435,5.5526,5.5541,5.5599,5.5492,5.5756,5.5764,5.5771,5.5851,5.5867,5.5881,0,0,0,0,0,5.5218,5.531,5.5293,5.531,5.5394,5.5467,5.5478,5.5467,5.5424,5.5468,5.5476,5.5443,5.5584,5.5535,5.5552,5.5612,5.5753,5.5762,5.5771,5.5844,5.5864,5.5881,0,0,0,0,0,0,5.5285,5.5314,5.5295,5.54,5.5432,5.5457,5.5512,5.5488,5.5531,5.5523,5.5506,5.5513,5.5604,5.5616,5.5562,5.5722,5.5661,5.5674,5.5711,5.573,5.5745,5.574,5.5497,0,0,0,0,0,5.5312,5.5371,5.5392,5.5483,5.55,5.5503,5.5535,5.5524,5.5555,5.5568,5.5582,5.5613,5.5663,5.5697,5.5745,5.5853,5.5858,5.5902,5.5917,5.593,5.5941,5.5998,5.6018,5.5806,5.5806,5.5805,0,0,5.5368,5.5391,5.5429,5.5497,5.552,5.558,5.5515,5.558,5.5624,5.5577,5.566,5.5672,5.5704,5.5802,5.5845,5.5815,5.6001,5.5941,5.5951,5.5955,5.601,5.603,5.6048,5.5812,5.5811,5.581,0,0,5.5502,5.5525,5.5604,5.5629,5.5666,5.5668,5.5687,5.5716,5.5723,5.5806,5.5773,5.5823,5.5911,5.5936,5.596,5.6103,5.6074,5.6119,5.6197,5.6254,5.6271,5.6285,5.6336,5.6355,5.613,5.613,5.613,0,5.5566,5.5657,5.5646,5.5715,5.5745,5.5708,5.5786,5.581,5.586,5.5881,5.5847,5.5957,5.5976,5.6079,5.6115,5.6135,5.6155,5.6115,5.6269,5.6284,5.6298,5.6346,5.6365,5.6136,5.6135,5.6134,5.6134,0,5.5734,5.5798,5.5856,5.5908,5.5944,5.6017,5.6016,5.6054,5.604,5.6045,5.613,5.6152,5.6204,5.6227,5.6213,5.6328,5.6308,5.6272,5.621,5.6323,5.6369,5.6387,5.6143,5.6141,5.614,5.6138,0,0,5.5911,5.5958,5.5979,5.6002,5.6041,5.6088,5.6159,5.6212,5.6244,5.628,5.6338,5.6414,5.6381,5.6409,5.6397,5.6447,5.6559,5.6404,5.6405,5.6432,5.6686,5.6713,5.6735,5.654,5.6543,5.6546,5.6683,0,5.6046,5.6172,5.6165,5.6282,5.634,5.6306,5.6367,5.6396,5.6403,5.6451,5.6457,5.6511,5.6464,5.648,5.6527,5.6535,5.6609,5.6525,5.6592,5.6595,5.6586,5.6759,5.6788,5.6916,5.6701,5.6704,5.6706,0,5.6221,5.6265,5.6389,5.642,5.6444,5.6499,5.6547,5.6594,5.6626,5.6627,5.6658,5.6639,5.6708,5.6645,5.674,5.6683,5.671,5.6718,5.6722,5.6728,5.6657,5.6769,5.6957,5.6976,5.6734,5.6731,5.6729,0,5.6338,5.6428,5.6514,5.6535,5.6573,5.6613,5.663,5.6658,5.669,5.6731,5.6751,5.6799,5.6825,5.6862,5.6855,5.6809,5.6952,5.6888,5.6954,5.6954,5.6985,5.6983,5.718,5.7003,5.7002,5.7002,5.7001,0,5.649,5.6567,5.6568,5.6621,5.6705,5.6695,5.6779,5.6791,5.6817,5.687,5.6842,5.6892,5.688,5.6929,5.6924,5.7003,5.7015,5.7017,5.7015,5.702,5.702,5.7037,5.7028,5.7007,5.7006,5.7005,5.7004,0,5.6635,5.6639,5.673,5.6759,5.6768,5.6829,5.6852,5.6902,5.6906,5.6974,5.6989,5.6995,5.7051,5.7049,5.7112,5.7108,5.7206,5.7193,5.7196,5.7194,5.726,5.7254,5.7475,5.7503,5.7307,5.7309,5.7311,0,5.6732,5.6791,5.6827,5.6862,5.6882,5.6938,5.6971,5.6963,5.6998,5.7039,5.7083,5.7138,5.7181,5.7273,5.7281,5.733,5.7318,5.7392,5.7324,5.7328,5.7319,5.7316,5.7321,5.7405,5.7407,5.7409,5.741,0,5.6904,5.6903,5.6953,5.7005,5.7046,5.7085,5.7121,5.715,5.7145,5.7186,5.7245,5.7279,5.7344,5.7398,5.7445,5.746,5.7434,5.7432,5.7449,5.7455,5.7455,5.7456,5.7233,5.7426,5.7425,5.7424,5.7423,5.7422,5.7028,5.7079,5.7112,5.7169,5.7196,5.723,5.7278,5.7289,5.7339,5.7393,5.7384,5.745,5.7479,5.7539,5.7559,5.7609,5.7582,5.7608,5.7614,5.7621,5.7629,5.7447,5.7617,5.7616,5.7616,5.7616,5.7615,0,5.7198,5.7218,5.7271,5.7323,5.7368,5.7342,5.738,5.7419,5.7478,5.7508,5.7552,5.7619,5.7672,5.7685,5.7735,5.7772,5.7762,5.7786,5.7783,5.7787,5.765,5.7629,5.7793,5.7793,5.7793,5.7793,5.7793,5.7793,5.7292,5.7377,5.738,5.7477,5.7496,5.7562,5.7586,5.7617,5.7642,5.7719,5.7764,5.7773,5.7796,5.7848,5.7894,5.7896,5.7916,5.7945,5.7942,5.7814,5.7796,5.7779,5.776,5.7949,5.7949,5.8075,5.8077,5.8077]}]]